Date String (YYYY-MM-DD hh:mm:ss) UTC,Instrument flags,absolute air pressure of the measurement (hPa),sample flow rate (lpm),inlet stack bypass flow (lpm),air temperature of the measurement (°C),ambient temperature measured by the external sensor (°C),aerosol sample conditioner tube jacket temperature (°C),OPC LED temperature (°C),internal box temperature (°C),relative humidity of the measurement (%),span deviation,mass concentration of particles derived from Lorenz-Mie calculation of OPC scattering (μg/m³),mass concentration of particles derived from Lorenz-Mie calculation of OPC scattering (μg/m³),mass concentration of particles derived from Lorenz-Mie calculation of OPC scattering (μg/m³)
DateTimeUTC,F1_M11,P_M11,Q1_M11,Q2_M11,T1_M11,T2_M11,T3_M11,T4_M11,T5_M11,U1_M11,ZSPAN_M11,X0_M11,X2_M11,X1_M11
2024-01-09 16:00:00,SystemResetWarning,0820.1,5.01,000.00,019.0,018.4,000.0,027.4,020.4,7.8,0000.0,0005.76,0003.23,0002.72
2024-01-09 16:01:00,SystemResetWarning,0820.0,5.00,000.00,019.0,018.4,000.0,027.4,020.4,7.7,0000.0,0005.85,0003.26,0002.77
2024-01-09 16:02:00,SystemResetWarning,0819.9,5.00,000.00,019.0,018.4,000.0,027.4,020.4,7.7,0000.0,0006.60,0003.26,0002.80
2024-01-09 16:03:00,SystemResetWarning,0819.8,5.00,000.00,019.0,018.4,000.0,027.4,020.4,7.7,0000.0,0007.26,0003.30,0002.83
2024-01-09 16:04:00,SystemResetWarning,0819.8,4.99,000.00,019.0,018.4,000.0,027.4,020.4,7.8,0000.0,0007.23,0003.31,0002.85
2024-01-09 16:05:00,SystemResetWarning,0819.8,5.00,000.00,019.0,018.4,000.0,027.4,020.4,7.7,0000.0,0006.90,0003.34,0002.87
2024-01-09 16:06:00,SystemResetWarning,0819.8,5.00,000.00,019.0,018.4,000.0,027.4,020.3,7.7,0000.0,0007.01,0003.36,0002.87
2024-01-09 16:07:00,SystemResetWarning,0819.9,4.99,000.00,019.0,018.4,000.0,027.4,020.3,7.7,0000.0,0007.12,0003.38,0002.87
2024-01-09 16:08:00,SystemResetWarning,0819.7,5.00,000.00,019.0,018.4,000.0,027.4,020.4,7.7,0000.0,0006.81,0003.38,0002.88
2024-01-09 16:09:00,SystemResetWarning,0819.7,5.00,000.00,019.0,018.4,000.0,027.4,020.4,7.7,0000.0,0006.68,0003.36,0002.87
2024-01-09 16:10:00,SystemResetWarning,0819.8,4.99,000.00,019.0,018.4,000.0,027.4,020.3,7.7,0000.0,0006.54,0003.33,0002.84
2024-01-09 16:11:00,SystemResetWarning,0819.9,5.00,000.00,019.0,018.3,000.0,027.4,020.4,7.7,0000.0,0006.50,0003.33,0002.83
2024-01-09 16:12:00,SystemResetWarning,0819.8,5.01,000.00,019.0,018.3,000.0,027.4,020.4,7.6,0000.0,0006.39,0003.31,0002.81
2024-01-09 16:13:00,SystemResetWarning,0819.9,5.00,000.00,019.0,018.3,000.0,027.4,020.4,7.7,0000.0,0005.91,0003.29,0002.77
2024-01-09 16:14:00,SystemResetWarning,0819.7,5.00,000.00,019.0,018.3,000.0,027.4,020.4,7.6,0000.0,0005.61,0003.28,0002.74
2024-01-09 16:15:00,SystemResetWarning,0819.7,5.01,000.00,019.0,018.3,000.0,027.4,020.4,7.6,0000.0,0005.67,0003.28,0002.73
2024-01-09 16:16:00,SystemResetWarning,0820.1,5.00,000.00,019.0,018.4,000.0,027.4,020.3,7.7,0000.0,0006.13,0003.28,0002.71
2024-01-09 16:17:00,SystemResetWarning,0819.6,5.00,000.00,019.0,018.4,000.0,027.4,020.3,7.9,0000.0,0007.29,0003.27,0002.69
2024-01-09 16:18:00,SystemResetWarning,0819.5,4.99,000.00,019.0,018.3,000.0,027.4,020.2,7.9,0000.0,0007.13,0003.24,0002.68
2024-01-09 16:19:00,SystemResetWarning,0819.4,4.99,000.00,019.0,018.3,000.0,027.4,020.2,7.9,0000.0,0006.96,0003.17,0002.66
2024-01-09 16:20:00,SystemResetWarning,0819.3,5.00,000.00,019.0,018.3,000.0,027.4,020.2,8.0,0000.0,0006.94,0003.17,0002.65
2024-01-09 16:21:00,SystemResetWarning,0819.3,4.99,000.00,019.0,018.3,000.0,027.4,020.3,8.0,0000.0,0006.94,0003.17,0002.63
2024-01-09 16:22:00,SystemResetWarning,0819.3,5.00,000.00,019.0,018.3,000.0,027.3,020.3,8.1,0000.0,0006.85,0003.14,0002.60
2024-01-09 16:23:00,SystemResetWarning,0819.3,5.00,000.00,019.0,018.3,000.0,027.4,020.3,8.2,0000.0,0006.74,0003.11,0002.59
2024-01-09 16:24:00,SystemResetWarning,0819.2,5.00,000.00,019.0,018.3,000.0,027.3,020.3,8.3,0000.0,0006.61,0003.10,0002.60
2024-01-09 16:25:00,SystemResetWarning,0819.2,5.00,000.00,019.0,018.3,000.0,027.3,020.3,8.4,0000.0,0006.25,0003.11,0002.59
2024-01-09 16:26:00,SystemResetWarning,0819.3,5.01,000.00,019.0,018.3,000.0,027.3,020.3,8.4,0000.0,0006.19,0003.11,0002.58
2024-01-09 16:27:00,SystemResetWarning,0819.3,5.01,000.00,019.0,018.3,000.0,027.3,020.3,8.5,0000.0,0005.90,0003.08,0002.57
2024-01-09 16:28:00,SystemResetWarning,0819.3,4.99,000.00,019.0,018.3,000.0,027.3,020.3,8.5,0000.0,0004.50,0003.06,0002.55
2024-01-09 16:29:00,SystemResetWarning,0819.2,4.99,000.00,019.0,018.3,000.0,027.3,020.3,8.6,0000.0,0004.38,0003.05,0002.54
2024-01-09 16:30:00,SystemResetWarning,0819.2,5.01,000.00,019.0,018.3,000.0,027.3,020.3,8.7,0000.0,0004.37,0003.05,0002.54
2024-01-09 16:31:00,SystemResetWarning,0819.1,5.01,000.00,019.0,018.3,000.0,027.3,020.3,8.7,0000.0,0004.23,0003.05,0002.55
2024-01-09 16:32:00,SystemResetWarning,0819.1,5.00,000.00,019.0,018.3,000.0,027.4,020.3,8.7,0000.0,0004.33,0003.10,0002.59
2024-01-09 16:33:00,SystemResetWarning,0819.0,4.99,000.00,019.0,018.3,000.0,027.3,020.3,8.7,0000.0,0004.40,0003.13,0002.65
2024-01-09 16:34:00,SystemResetWarning,0819.0,5.00,000.00,019.0,018.3,000.0,027.3,020.3,8.6,0000.0,0004.51,0003.17,0002.70
2024-01-09 16:35:00,SystemResetWarning,0819.0,5.00,000.00,019.0,018.3,000.0,027.4,020.3,8.5,0000.0,0004.99,0003.21,0002.76
2024-01-09 16:36:00,SystemResetWarning,0819.0,5.00,000.00,019.0,018.4,000.0,027.3,020.3,8.6,0000.0,0005.07,0003.24,0002.82
2024-01-09 16:37:00,SystemResetWarning,0819.0,4.99,000.00,019.0,018.4,000.0,027.3,020.4,8.6,0000.0,0005.29,0003.29,0002.90
2024-01-09 16:38:00,SystemResetWarning,0819.0,5.00,000.00,019.0,018.4,000.0,027.4,020.4,8.5,0000.0,0005.51,0003.35,0002.98
2024-01-09 16:39:00,SystemResetWarning,0819.0,5.01,000.00,019.0,018.4,000.0,027.4,020.4,8.3,0000.0,0005.64,0003.40,0003.07
2024-01-09 16:40:00,SystemResetWarning,0819.0,5.01,000.00,019.0,018.4,000.0,027.4,020.4,8.3,0000.0,0006.00,0003.43,0003.11
2024-01-09 16:41:00,SystemResetWarning,0819.0,5.00,000.00,019.0,018.4,000.0,027.4,020.4,8.2,0000.0,0006.44,0003.49,0003.15
2024-01-09 16:42:00,SystemResetWarning,0819.0,5.00,000.00,019.0,018.4,000.0,027.4,020.4,8.1,0000.0,0006.66,0003.53,0003.18
2024-01-09 16:43:00,SystemResetWarning,0818.9,5.00,000.00,019.0,018.4,000.0,027.4,020.4,8.0,0000.0,0006.81,0003.56,0003.19
2024-01-09 16:44:00,SystemResetWarning,0818.9,5.00,000.00,019.1,018.4,000.0,027.4,020.4,8.0,0000.0,0006.76,0003.56,0003.19
2024-01-09 16:45:00,SystemResetWarning,0819.0,5.00,000.00,019.1,018.4,000.0,027.4,020.4,8.0,0000.0,0006.84,0003.57,0003.19
2024-01-09 16:46:00,SystemResetWarning,0819.0,5.00,000.00,019.1,018.4,000.0,027.4,020.4,8.0,0000.0,0006.51,0003.56,0003.19
2024-01-09 16:47:00,SystemResetWarning,0819.0,5.00,000.00,019.1,018.4,000.0,027.4,020.4,8.0,0000.0,0006.78,0003.56,0003.19
2024-01-09 16:48:00,SystemResetWarning,0819.0,5.00,000.00,019.1,018.4,000.0,027.4,020.4,8.0,0000.0,0007.38,0003.54,0003.19
2024-01-09 16:49:00,SystemResetWarning,0819.0,5.00,000.00,019.1,018.5,000.0,027.4,020.5,7.9,0000.0,0007.56,0003.50,0003.18
2024-01-09 16:50:00,SystemResetWarning,0819.0,5.00,000.00,019.1,018.5,000.0,027.4,020.5,7.9,0000.0,0007.47,0003.48,0003.17
2024-01-09 16:51:00,SystemResetWarning,0819.0,4.99,000.00,019.1,018.5,000.0,027.4,020.5,7.9,0000.0,0007.40,0003.46,0003.15
2024-01-09 16:52:00,SystemResetWarning,0819.0,5.00,000.00,019.1,018.5,000.0,027.4,020.5,8.0,0000.0,0007.24,0003.44,0003.13
2024-01-09 16:53:00,SystemResetWarning,0819.0,5.00,000.00,019.1,018.5,000.0,027.4,020.5,8.0,0000.0,0007.33,0003.44,0003.12
2024-01-09 16:54:00,SystemResetWarning,0819.0,5.00,000.00,019.1,018.5,000.0,027.4,020.5,8.2,0000.0,0007.30,0003.42,0003.10
2024-01-09 16:55:00,SystemResetWarning,0819.0,5.00,000.00,019.1,018.5,000.0,027.4,020.5,8.2,0000.0,0007.30,0003.39,0003.04
2024-01-09 16:56:00,SystemResetWarning,0819.0,5.00,000.00,019.1,018.5,000.0,027.4,020.5,8.4,0000.0,0007.19,0003.33,0002.95
2024-01-09 16:57:00,SystemResetWarning,0819.2,5.00,000.00,019.1,018.5,000.0,027.4,020.5,8.3,0000.0,0007.07,0003.28,0002.86
2024-01-09 16:58:00,SystemResetWarning,0819.3,5.00,000.00,019.1,018.5,000.0,027.4,020.5,8.5,0000.0,0006.79,0003.23,0002.76
2024-01-09 16:59:00,SystemResetWarning,0819.3,5.00,000.00,019.1,018.5,000.0,027.4,020.5,8.6,0000.0,0005.65,0003.19,0002.65
